Regional Weather Roundup
Issued by NWS Binghamton, NY

Current Version | Previous Version | Text Only | Print | Product List | Glossary On
Versions: 1 2 3 4 5 6 7 8 9 10 11 12 13 14 15 16 17 18 19 20 21 22 23 24 25 26 27 28 29 30 31 32 33 34 35 36 37 38 39 40 41 42 43 44 45 46 47 48 49 50
401
ASUS41 KBGM 132210
RWRBGM

REGIONAL WEATHER ROUNDUP
NATIONAL WEATHER SERVICE BINGHAMTON NY
500 PM EST FRI DEC 13 2019

Note: "fair" indicates few or no clouds below 12,000 feet with no
significant weather and/or obstructions to visibility.

* = Station(s) that does not report precipitation, such as rain,
snow, etc, also no thunder or fog.

NYZ009-015>018-022>025-036-037-044>046-055>057-062-132300
...Central New York...

CITY           SKY/WX    TMP DP  RH WIND       PRES   REMARKS
Binghamton     CLOUDY    37  37 100 SE7       30.07F FOG     WCI  32
Cortland       LGT RAIN  34  34 100 N3        30.08F
Dansville      CLOUDY    41  34  76 SE6       30.04F
Elmira         CLOUDY    37  36  96 CALM      30.08F FOG
Endicott       CLOUDY    36  36 100 CALM      30.10S FOG
Ithaca         LGT RAIN  38  38 100 SE12      30.07F WCI  30
Hamilton       CLOUDY    36  34  93 SE6       30.09F WCI  31
Monticello     LGT RAIN  35  35 100 E7        30.16F VSB 1/4 WCI  29
Norwich        CLOUDY    34  34 100 CALM      30.11F FOG
Oneonta        DRIZZLE   39  39 100 SE6       30.09F WCI  35
Penn Yan       CLOUDY    38  35  89 SW7       30.06F WCI  33
Rome           LGT RAIN  34  34 100 SE6       30.15F WCI  29
Seneca Falls   CLOUDY    37  36  93 S7        30.09S WCI  32
Sidney         CLOUDY    43  39  87 CALM      30.10F
Skaneateles    CLOUDY    39  37  93 CALM      30.07F
Syracuse       MIX PCPN  34  32  92 E8        30.10F WCI  27
$$

PAZ038>040-043-044-047-048-072-132300
...Northeast Pennsylvania...

CITY           SKY/WX    TMP DP  RH WIND       PRES   REMARKS
Hazleton       FOG       43  41  93 SE7G16    30.11F VSB 1/4
Scranton       CLOUDY    44  41  89 CALM      30.10F
Towanda          N/A     37  37 100 NW5       30.10F WCI  34
$$
&&
KEY
WCI = Wind Chill Index
VSB = Visibility
HX  = Heat Index
$$




USA.gov is the U.S. government's official web portal to all federal, state and local government web resources and services.